User: anonymous   Login
Location: Berg
(47.2344°N, 9.5296°E)
Time: 01:45:21
(UTC+00:00)
Language:

KKS-1 - Orbit

View from above orbital plane
View from above orbital plane
View from above satellite
View from above satellite

Ground track
Ground track

The orbit data is extracted from the following two-line orbital elements,

1 33499U 09002H   21339.61187994  .00000264  00000-0  46398-4 0  9998
2 33499  98.2422 213.1464 0008333 207.9897 152.0864 14.75748970691652
Epoch (UTC): 05 December 2021 14:41:06
Eccentricity: 0.0008333
inclination: 98.2422°
perigee height: 637 km
apogee height: 648 km
right ascension of ascending node: 213.1464°
argument of perigee: 207.9897°
revolutions per day: 14.75748970
mean anomaly at epoch: 152.0864°
orbit number at epoch: 69165

The dashed part of the orbit path shows where the satellite is in the earth's shadow,  

DLR